TimeCDT,TemperatureF,Dew PointF,Humidity,Sea Level PressureIn,VisibilityMPH,Wind Direction,Wind SpeedMPH,Gust SpeedMPH,PrecipitationIn,Events,Conditions,WindDirDegrees,DateUTC
12:15 AM,21.2,8.6,58,30.01,10.0,West,12.7,19.6,N/A,,Clear,280,2013-03-20 05:15:00
12:35 AM,21.2,8.6,58,30.01,10.0,West,15.0,19.6,N/A,,Clear,280,2013-03-20 05:35:00
12:55 AM,19.4,6.8,58,30.01,10.0,West,11.5,19.6,N/A,,Clear,280,2013-03-20 05:55:00
1:15 AM,19.4,6.8,58,30.01,10.0,West,10.4,-,N/A,,Clear,280,2013-03-20 06:15:00
1:35 AM,19.4,5.0,54,30.01,10.0,West,13.8,20.7,N/A,,Clear,280,2013-03-20 06:35:00
1:55 AM,19.4,5.0,54,30.01,10.0,West,10.4,-,N/A,,Clear,270,2013-03-20 06:55:00
2:15 AM,17.6,5.0,58,30.01,10.0,West,11.5,17.3,N/A,,Clear,280,2013-03-20 07:15:00
2:35 AM,17.6,5.0,58,30.01,10.0,West,12.7,19.6,N/A,,Clear,280,2013-03-20 07:35:00
2:55 AM,17.6,5.0,58,30.00,10.0,West,12.7,20.7,N/A,,Clear,280,2013-03-20 07:55:00
3:15 AM,17.6,3.2,53,30.00,10.0,West,15.0,23.0,N/A,,Clear,280,2013-03-20 08:15:00
3:35 AM,17.6,3.2,53,30.01,10.0,West,10.4,-,N/A,,Clear,280,2013-03-20 08:35:00
3:55 AM,15.8,3.2,58,30.01,10.0,West,10.4,16.1,N/A,,Clear,280,2013-03-20 08:55:00
4:15 AM,15.8,3.2,58,30.01,10.0,West,11.5,17.3,N/A,,Clear,270,2013-03-20 09:15:00
4:35 AM,14.0,3.2,62,30.01,10.0,WNW,12.7,18.4,N/A,,Clear,290,2013-03-20 09:35:00
4:55 AM,14.0,3.2,62,30.01,10.0,West,16.1,23.0,N/A,,Clear,280,2013-03-20 09:55:00
5:15 AM,14.0,1.4,57,30.01,10.0,West,17.3,23.0,N/A,,Clear,280,2013-03-20 10:15:00
5:35 AM,14.0,1.4,57,30.01,10.0,West,15.0,20.7,N/A,,Clear,280,2013-03-20 10:35:00
5:55 AM,12.2,1.4,62,30.01,10.0,WNW,12.7,-,N/A,,Clear,290,2013-03-20 10:55:00
6:15 AM,12.2,1.4,62,30.01,10.0,West,16.1,-,N/A,,Clear,280,2013-03-20 11:15:00
6:35 AM,12.2,-0.4,57,30.01,10.0,WNW,13.8,19.6,N/A,,Clear,290,2013-03-20 11:35:00
6:45 AM,10.4,-0.4,62,30.02,10.0,West,13.8,23.0,N/A,,Clear,280,2013-03-20 11:45:00
6:55 AM,12.2,-0.4,57,30.02,10.0,WNW,17.3,24.2,N/A,,Clear,290,2013-03-20 11:55:00
7:45 AM,10.4,-2.2,57,30.02,10.0,WNW,20.7,26.5,N/A,,Clear,290,2013-03-20 12:45:00
8:45 AM,12.2,-2.2,53,30.03,10.0,WNW,13.8,25.3,N/A,,Clear,290,2013-03-20 13:45:00
9:45 AM,12.2,-0.4,57,30.03,10.0,WNW,18.4,25.3,N/A,,Clear,290,2013-03-20 14:45:00
10:45 AM,14.0,-0.4,53,30.03,10.0,West,19.6,25.3,N/A,,Clear,280,2013-03-20 15:45:00
11:45 AM,15.8,1.4,53,30.02,10.0,WNW,13.8,24.2,N/A,,Clear,290,2013-03-20 16:45:00
12:45 PM,17.6,3.2,53,30.02,10.0,West,17.3,26.5,N/A,,Clear,280,2013-03-20 17:45:00
1:45 PM,19.4,3.2,49,30.01,10.0,West,18.4,26.5,N/A,,Clear,280,2013-03-20 18:45:00
2:45 PM,17.6,3.2,53,30.00,10.0,West,12.7,21.9,N/A,,Mostly Cloudy,280,2013-03-20 19:45:00
3:45 PM,19.4,3.2,49,30.00,10.0,WNW,17.3,23.0,N/A,,Overcast,290,2013-03-20 20:45:00
4:45 PM,19.4,3.2,49,30.00,10.0,West,17.3,24.2,N/A,,Mostly Cloudy,280,2013-03-20 21:45:00
5:45 PM,17.6,3.2,53,30.01,10.0,WNW,13.8,21.9,N/A,,Scattered Clouds,300,2013-03-20 22:45:00
6:50 PM,17.6,3.2,53,30.01,10.0,WNW,9.2,-,N/A,,Clear,290,2013-03-20 23:50:00
7:50 PM,15.8,1.4,53,30.02,10.0,WNW,10.4,-,N/A,,Clear,290,2013-03-21 00:50:00
8:45 PM,15.8,1.4,53,30.02,10.0,WNW,9.2,-,N/A,,Clear,290,2013-03-21 01:45:00
9:15 PM,15.8,3.2,58,30.03,10.0,WNW,8.1,-,N/A,,Clear,290,2013-03-21 02:15:00
9:35 PM,14.0,3.2,62,30.03,10.0,WNW,8.1,-,N/A,,Clear,290,2013-03-21 02:35:00
9:55 PM,14.0,3.2,62,30.03,10.0,WNW,10.4,-,N/A,,Clear,300,2013-03-21 02:55:00
10:15 PM,14.0,3.2,62,30.03,10.0,WNW,9.2,-,N/A,,Clear,300,2013-03-21 03:15:00
10:35 PM,14.0,3.2,62,30.03,10.0,WNW,10.4,-,N/A,,Clear,300,2013-03-21 03:35:00
10:55 PM,14.0,1.4,57,30.02,10.0,WNW,12.7,-,N/A,,Clear,300,2013-03-21 03:55:00
11:15 PM,14.0,1.4,57,30.02,10.0,WNW,11.5,-,N/A,,Clear,300,2013-03-21 04:15:00
11:35 PM,14.0,3.2,62,30.02,10.0,WNW,10.4,16.1,N/A,,Clear,290,2013-03-21 04:35:00
11:55 PM,14.0,3.2,62,30.01,10.0,NW,10.4,16.1,N/A,,Clear,310,2013-03-21 04:55:00